Terminal Aerodrome Forecast
Issued by NWS

Home | Current Version | Previous Version | Text Only | Print | Product List | Glossary On
Versions: 1 2 3 4 5 6 7 8 9 10 11 12 13 14 15 16 17 18 19 20 21
733
FTUS46 KMTR 261720
TAFOAK
TAF
KOAK 261720Z 2618/2724 25008KT P6SM FEW016
     FM262100 27013G20KT P6SM FEW018
     FM270400 29010KT P6SM OVC012
     FM271600 VRB03KT P6SM SCT015
     FM271900 28012KT P6SM FEW020=

USA.gov is the U.S. government's official web portal to all federal, state and local government web resources and services.